Weather History for KMCK - December, 2012

Change the Weather History Date:

Tuesday, December 18, 2012

  Actual Average Record
Temperature  
Mean Temperature 38 °F 27 °F  
Max Temperature 50 °F 40 °F 74 °F (1980)
Min Temperature 26 °F 14 °F -12 °F (1983)
Degree Days  
Heating Degree Days 25    
Moisture  
Dew Point 21 °F    
Average Humidity 51    
Maximum Humidity 75    
Minimum Humidity 25    
Precipitation  
Precipitation 0.00 in 0.02 in 0.08 in (1989)
Month to date precipitation 0.38 0.38  
Year to date precipitation 8.51 22.27  
Sea Level Pressure  
Sea Level Pressure 29.75 in    
Wind  
Wind Speed 10 mph (West)    
Max Wind Speed 20 mph    
Max Gust Speed 25 mph    
Visibility 10 miles    
Events      
T = Trace of Precipitation, MM = Missing Value Source: NWS Daily Summary

Daily Weather History Graph

Daily Weather History Graph

Search for Another Location

Airport or City:

Trip Planner

Search our weather history database for the weather conditions in past years. The results will help you decide how hot, cold, wet, or windy it might be!

Date:

Astronomy

Dec. 18, 2012 Rise Set
Actual Time 7:59 AM CST 5:18 PM CST
Civil Twilight 7:29 AM CST 5:49 PM CST
Nautical Twilight 6:55 AM CST 6:23 PM CST
Astronomical Twilight 6:21 AM CST 6:56 PM CST
Moon 11:40 AM CST (12/18) 11:47 PM CST (12/18)
Length of Visible Light 10h 20m
Length of Day
9h 18m
Waxing Crescent, 35% of the Moon is Illuminated
Dec 18
Waxing Crescent
Dec 19
First Quarter
Dec 28
Full
Jan 4
Last Quarter
Jan 11
New

Hourly Weather History & Observations

Time (CST) Temp. Windchill Dew Point Humidity Pressure Visibility Wind Dir Wind Speed Gust Speed Precip Events Conditions
12:53 AM 36.0 °F 28.0 °F 24.1 °F 62% 29.61 in 10.0 mi West 11.5 mph - N/A   Clear
1:53 AM 32.0 °F 23.0 °F 23.0 °F 69% 29.62 in 10.0 mi WSW 11.5 mph - N/A   Clear
2:53 AM 30.9 °F 22.2 °F 23.0 °F 72% 29.63 in 10.0 mi West 10.4 mph - N/A   Clear
3:53 AM 35.1 °F 26.4 °F 25.0 °F 67% 29.64 in 10.0 mi West 12.7 mph - N/A   Clear
4:53 AM 37.9 °F 28.5 °F 21.0 °F 51% 29.63 in 10.0 mi West 17.3 mph 25.3 mph N/A   Clear
5:53 AM 37.9 °F 30.5 °F 19.9 °F 48% 29.68 in 10.0 mi West 11.5 mph - N/A   Clear
6:53 AM 33.1 °F 24.4 °F 21.0 °F 61% 29.72 in 10.0 mi WNW 11.5 mph - N/A   Clear
7:53 AM 37.0 °F 26.7 °F 21.0 °F 52% 29.73 in 10.0 mi WNW 19.6 mph - N/A   Scattered Clouds
8:53 AM 37.9 °F 28.9 °F 21.9 °F 53% 29.76 in 10.0 mi WNW 16.1 mph - N/A   Partly Cloudy
9:53 AM 41.0 °F 32.5 °F 23.0 °F 49% 29.78 in 10.0 mi WNW 17.3 mph 25.3 mph N/A   Mostly Cloudy
10:53 AM 42.1 °F 35.7 °F 24.1 °F 49% 29.81 in 10.0 mi WNW 11.5 mph - N/A   Clear
11:53 AM 45.0 °F 39.7 °F 24.1 °F 44% 29.79 in 10.0 mi WNW 10.4 mph - N/A   Clear
12:53 PM 48.0 °F - 25.0 °F 41% 29.78 in 10.0 mi WNW 10.4 mph - N/A   Clear
1:53 PM 50.0 °F - 18.0 °F 28% 29.77 in 10.0 mi NW 11.5 mph - N/A   Clear
2:53 PM 50.0 °F - 15.1 °F 25% 29.78 in 10.0 mi NW 6.9 mph - N/A   Clear
3:53 PM 48.9 °F - 16.0 °F 27% 29.79 in 10.0 mi WSW 6.9 mph - N/A   Clear
4:53 PM 46.0 °F - 15.1 °F 29% 29.79 in 10.0 mi Calm Calm - N/A   Overcast
5:53 PM 37.9 °F - 19.9 °F 48% 29.80 in 10.0 mi Calm Calm - N/A   Partly Cloudy
6:53 PM 39.0 °F 35.7 °F 18.0 °F 43% 29.81 in 10.0 mi South 4.6 mph - N/A   Clear
7:53 PM 34.0 °F - 19.0 °F 54% 29.82 in 10.0 mi Calm Calm - N/A   Clear
8:53 PM 30.0 °F - 21.0 °F 69% 29.82 in 10.0 mi Calm Calm - N/A   Clear
9:53 PM 30.9 °F - 19.0 °F 61% 29.81 in 10.0 mi Calm Calm - N/A   Clear
10:53 PM 32.0 °F - 18.0 °F 56% 29.80 in 10.0 mi Calm Calm - N/A   Clear
11:53 PM 28.0 °F 24.2 °F 21.0 °F 75% 29.81 in 10.0 mi NW 3.5 mph - N/A   Clear